This is the latest recevied weather packets stored in our database for station/object KY4LEX. If no packets are shown the sender has not sent any weather packets the latest 10 day(s).
| Time | Temp. | Humidity | Pressure | Rain* | Wind** | Luminosity | Snow |
|---|---|---|---|---|---|---|---|
| 1777522309 | 12.78° C | 74% | 1019.5 hPa | 0 mm | - | 0 W/m² | - |
| 1777522006 | 12.78° C | 75% | 1019.2 hPa | 0 mm | - | 0 W/m² | - |
| 1777521702 | 12.78° C | 78% | 1019.3 hPa | 0 mm | - | 0 W/m² | - |
| 1777521400 | 12.78° C | 78% | 1018.9 hPa | 0 mm | - | 0 W/m² | - |
| 1777521096 | 12.22° C | 82% | 1019 hPa | 0 mm | - | 0 W/m² | - |
| 1777520794 | 12.22° C | 83% | 1019.1 hPa | 0 mm | - | 0 W/m² | - |
| 1777520490 | 12.22° C | 82% | 1019.1 hPa | 0 mm | - | 0 W/m² | - |
| 1777520187 | 12.22° C | 83% | 1019.2 hPa | 0 mm | - | 0 W/m² | - |
| 1777519885 | 12.22° C | 82% | 1019 hPa | 0 mm | - | 0 W/m² | - |
| 1777519582 | 12.22° C | 80% | 1019.2 hPa | 0 mm | - | 0 W/m² | - |
| 1777519278 | 12.22° C | 84% | 1019.2 hPa | 0 mm | - | 0 W/m² | - |
| 1777518974 | 11.67° C | 84% | 1019.3 hPa | 0 mm | - | 0 W/m² | - |
| 1777518671 | 11.67° C | 87% | 1019.1 hPa | 0 mm | - | 0 W/m² | - |
| 1777518368 | 11.67° C | 86% | 1019.1 hPa | 0 mm | - | 0 W/m² | - |
| 1777518063 | 12.22° C | 86% | 1018.9 hPa | 0 mm | - | 0 W/m² | - |
| 1777517760 | 11.67° C | 87% | 1019 hPa | 0 mm | - | 0 W/m² | - |
| 1777517456 | 11.67° C | 87% | 1019 hPa | 0 mm | - | 0 W/m² | - |
| 1777517155 | 11.67° C | 87% | 1019 hPa | 0 mm | - | 0 W/m² | - |
| 1777516852 | 11.67° C | 87% | 1019 hPa | 0 mm | - | 0 W/m² | - |
| 1777516549 | 11.67° C | 87% | 1019 hPa | 0 mm | - | 0 W/m² | - |
| 1777516244 | 12.22° C | 87% | 1019 hPa | 0 mm | - | 0 W/m² | - |
| 1777515941 | 12.22° C | 87% | 1018.9 hPa | 0 mm | - | 0 W/m² | - |
| 1777515638 | 12.22° C | 86% | 1018.7 hPa | 0 mm | - | 0 W/m² | - |
| 1777515335 | 12.22° C | 85% | 1018.7 hPa | 0 mm | - | 0 W/m² | - |
| 1777515031 | 12.78° C | 85% | 1018.7 hPa | 0 mm | - | 0 W/m² | - |
* Rain latest hour (hover to see other rain measurements)
** Current wind speed in m/s (hover to see current wind gust speed)